WXM80 ListenWXM80 Stop

You find our weather info also at:

UK Metoffice

WeatherCloud

Weather Underground

Northeastern Weather Network

AWEKAS

Citizen Weather Observer Program (CWOP)

HAMweather, WeatherForYou, PWS Weather


Weather Underground History page Text

Daily Summary for June 8, 2017 Units:  Metric    English   Both
« Previous Day
Next Day »
Daily Weekly Monthly Yearly Custom
  High: Low: Average:
Temperature: 20.9 °C 10 °C 15.4 °C
Dew Point: 16.2 °C 7.8 °C 11.8 °C
Humidity: 97 % 60 % 80 %
Wind Speed: 8.7 km/h 0 km/h 1.1 km/h
Wind Gust: 13 km/h - -
Wind:- - East
Pressure: 1015.8 hPa 1008 hPa -
Precipitation: 0 mm    
Historical Graphs
 
 
Tabular Data for June 8, 2017
Time Temperature Dew Point Pressure Wind Wind Speed Wind Gust Humidity Rainfall Rate (Hourly)
00:04 13.3 °C 10.6 °C 1015.5 hPa Calm     84 % 0 mm
00:09 13.3 °C 10.6 °C 1015.5 hPa Calm     84 % 0 mm
00:14 13.3 °C 10.6 °C 1015.5 hPa Calm     84 % 0 mm
00:19 13.3 °C 10.6 °C 1015.1 hPa Calm   1.6 km/h 84 % 0 mm
00:24 13.3 °C 10.8 °C 1015.1 hPa WSW 0.5 km/h 5.6 km/h 85 % 0 mm
00:29 13.3 °C 10.8 °C 1015.1 hPa WSW 0.3 km/h 1.9 km/h 85 % 0 mm
00:34 13.3 °C 10.8 °C 1015.1 hPa Calm     85 % 0 mm
00:39 13.3 °C 11 °C 1015.1 hPa WSW 0.3 km/h 1.9 km/h 86 % 0 mm
00:45 13.3 °C 11 °C 1015.1 hPa WSW 0.2 km/h 1.9 km/h 86 % 0 mm
00:50 13.3 °C 10.8 °C 1015.1 hPa WSW 0.2 km/h 1.9 km/h 85 % 0 mm
00:55 13.3 °C 10.8 °C 1015.1 hPa Calm   1.9 km/h 85 % 0 mm
01:00 13.3 °C 11 °C 1015.1 hPa Calm   1.9 km/h 86 % 0 mm
01:05 13.2 °C 10.9 °C 1015.1 hPa WSW 0.2 km/h 1.9 km/h 86 % 0 mm
01:10 13.2 °C 10.9 °C 1014.8 hPa Calm   1.9 km/h 86 % 0 mm
01:15 13.2 °C 10.9 °C 1014.8 hPa Calm     86 % 0 mm
01:20 13.1 °C 10.8 °C 1014.8 hPa Calm     86 % 0 mm
01:25 13.1 °C 10.8 °C 1014.8 hPa Calm     86 % 0 mm
01:30 13 °C 10.7 °C 1014.8 hPa WSW 0.2 km/h 1.9 km/h 86 % 0 mm
01:35 12.9 °C 10.7 °C 1015.1 hPa WSW 0.3 km/h 1.9 km/h 86 % 0 mm
01:40 12.9 °C 10.6 °C 1015.1 hPa Calm     86 % 0 mm
01:45 12.8 °C 10.6 °C 1014.8 hPa WSW 0.3 km/h 1.9 km/h 86 % 0 mm
01:50 12.8 °C 10.5 °C 1014.8 hPa WSW 0.8 km/h 3.7 km/h 86 % 0 mm
01:55 12.7 °C 10.6 °C 1014.8 hPa Calm     87 % 0 mm
02:00 12.7 °C 10.6 °C 1014.8 hPa Calm     87 % 0 mm
02:05 12.6 °C 10.5 °C 1014.8 hPa Calm   1.9 km/h 87 % 0 mm
02:10 12.6 °C 10.4 °C 1014.8 hPa Calm     87 % 0 mm
02:15 12.5 °C 10.4 °C 1014.8 hPa Calm     87 % 0 mm
02:20 12.4 °C 10.3 °C 1014.8 hPa Calm     87 % 0 mm
02:25 12.4 °C 10.4 °C 1014.8 hPa Calm     88 % 0 mm
02:30 12.3 °C 10.4 °C 1014.8 hPa Calm     88 % 0 mm
02:35 12.3 °C 10.3 °C 1014.8 hPa Calm     88 % 0 mm
02:40 12.2 °C 10.2 °C 1014.8 hPa Calm     88 % 0 mm
02:45 12.1 °C 10.1 °C 1014.8 hPa Calm     88 % 0 mm
02:50 12 °C 10.2 °C 1015.1 hPa Calm     89 % 0 mm
02:55 11.9 °C 10.1 °C 1014.8 hPa Calm     89 % 0 mm
03:00 11.8 °C 10.1 °C 1015.1 hPa Calm     89 % 0 mm
03:05 11.7 °C 9.9 °C 1015.1 hPa Calm     89 % 0 mm
03:11 11.7 °C 9.9 °C 1015.1 hPa Calm     89 % 0 mm
03:16 11.6 °C 9.9 °C 1014.8 hPa Calm     90 % 0 mm
03:21 11.5 °C 9.9 °C 1015.1 hPa Calm     90 % 0 mm
03:26 11.4 °C 9.8 °C 1015.1 hPa Calm     90 % 0 mm
03:31 11.3 °C 9.9 °C 1014.8 hPa Calm     91 % 0 mm
03:36 11.3 °C 9.9 °C 1014.8 hPa Calm     91 % 0 mm
03:41 11.2 °C 9.8 °C 1014.8 hPa Calm     91 % 0 mm
03:46 11.1 °C 9.6 °C 1014.8 hPa Calm     90 % 0 mm
03:51 11.1 °C 9.7 °C 1014.8 hPa Calm     91 % 0 mm
03:56 11 °C 9.6 °C 1014.8 hPa Calm     91 % 0 mm
04:01 10.9 °C 9.6 °C 1014.8 hPa Calm     91 % 0 mm
04:06 10.9 °C 9.6 °C 1014.8 hPa Calm     91 % 0 mm
04:11 10.8 °C 9.4 °C 1014.8 hPa Calm     91 % 0 mm
04:16 10.8 °C 9.4 °C 1014.4 hPa WSW 0.8 km/h 1.9 km/h 91 % 0 mm
04:21 10.8 °C 9.4 °C 1014.4 hPa Calm     91 % 0 mm
04:26 10.7 °C 9.3 °C 1014.4 hPa Calm     91 % 0 mm
04:31 10.7 °C 9.3 °C 1014.4 hPa Calm     91 % 0 mm
04:36 10.6 °C 9.2 °C 1014.4 hPa Calm     91 % 0 mm
04:41 10.6 °C 9.2 °C 1014.4 hPa Calm     91 % 0 mm
04:46 10.6 °C 9.3 °C 1014.4 hPa Calm     92 % 0 mm
04:51 10.5 °C 9.3 °C 1014.8 hPa Calm     92 % 0 mm
04:56 10.5 °C 9.3 °C 1014.8 hPa Calm     92 % 0 mm
05:01 10.4 °C 9.2 °C 1014.8 hPa Calm     92 % 0 mm
05:06 10.4 °C 9.2 °C 1014.8 hPa Calm     92 % 0 mm
05:11 10.3 °C 9.1 °C 1014.8 hPa Calm     92 % 0 mm
05:16 10.3 °C 9.1 °C 1014.8 hPa Calm     92 % 0 mm
05:21 10.2 °C 9 °C 1014.8 hPa Calm     92 % 0 mm
05:26 10.2 °C 8.9 °C 1014.8 hPa Calm     92 % 0 mm
05:31 10.1 °C 8.9 °C 1014.8 hPa Calm     92 % 0 mm
05:36 10.1 °C 8.8 °C 1014.8 hPa Calm     92 % 0 mm
05:41 10.1 °C 8.8 °C 1014.8 hPa Calm     92 % 0 mm
05:46 10 °C 8.8 °C 1014.8 hPa Calm     92 % 0 mm
05:51 10 °C 8.9 °C 1015.1 hPa Calm     93 % 0 mm
05:56 10 °C 8.9 °C 1015.1 hPa Calm     93 % 0 mm
06:01 10.1 °C 9 °C 1015.1 hPa Calm     93 % 0 mm
06:06 10.1 °C 9 °C 1015.1 hPa Calm     93 % 0 mm
06:09 10.1 °C 9.1 °C 1015.1 hPa Calm     93 % 0 mm
06:14 10.2 °C 9.2 °C 1015.1 hPa Calm     94 % 0 mm
06:19 10.3 °C 9.3 °C 1015.1 hPa Calm     94 % 0 mm
06:29 10.6 °C 9.8 °C 1015.5 hPa Calm     95 % 0 mm
06:34 10.7 °C 9.9 °C 1015.5 hPa Calm     95 % 0 mm
06:39 10.8 °C 10 °C 1015.5 hPa Calm     95 % 0 mm
06:44 11 °C 10.4 °C 1015.5 hPa Calm     96 % 0 mm
06:49 11.3 °C 10.7 °C 1015.5 hPa Calm     96 % 0 mm
06:54 11.8 °C 11.2 °C 1015.5 hPa Calm     96 % 0 mm
06:59 12.6 °C 12.1 °C 1015.5 hPa Calm     97 % 0 mm
07:04 12.9 °C 12.5 °C 1015.5 hPa Calm     97 % 0 mm
07:09 13.2 °C 12.8 °C 1015.5 hPa Calm     97 % 0 mm
07:14 13.7 °C 13.2 °C 1015.5 hPa Calm     97 % 0 mm
07:19 14 °C 13.6 °C 1015.8 hPa SSE 0.6 km/h 3.2 km/h 97 % 0 mm
07:24 14.2 °C 13.8 °C 1015.8 hPa Calm     97 % 0 mm
07:25 14.3 °C 13.8 °C 1015.8 hPa Calm     97 % 0 mm
07:30 14.5 °C 14.1 °C 1015.8 hPa Calm   1.6 km/h 97 % 0 mm
07:36 14.7 °C 14.2 °C 1015.8 hPa Calm   1.6 km/h 97 % 0 mm
07:41 14.8 °C 14.2 °C 1015.8 hPa Calm   1.6 km/h 96 % 0 mm
07:46 15 °C 14.4 °C 1015.8 hPa Calm   3.2 km/h 96 % 0 mm
07:51 15.2 °C 14.6 °C 1015.8 hPa Calm   1.6 km/h 96 % 0 mm
07:56 15.3 °C 14.5 °C 1015.8 hPa Calm   3.2 km/h 95 % 0 mm
08:01 15.4 °C 14.5 °C 1015.8 hPa East 0.3 km/h 1.9 km/h 94 % 0 mm
08:06 15.6 °C 14.5 °C 1015.8 hPa Calm   1.6 km/h 93 % 0 mm
08:11 15.8 °C 14.5 °C 1015.8 hPa Calm   3.2 km/h 92 % 0 mm
08:16 15.9 °C 14.7 °C 1015.8 hPa Calm     92 % 0 mm
08:21 16.2 °C 14.7 °C 1015.8 hPa Calm   3.2 km/h 91 % 0 mm
08:26 16.3 °C 14.7 °C 1015.8 hPa NNE 1.6 km/h 6.4 km/h 90 % 0 mm
08:31 16.4 °C 14.4 °C 1015.8 hPa NE 3.2 km/h 6.4 km/h 88 % 0 mm
08:36 16.5 °C 14.5 °C 1015.8 hPa NE 1.6 km/h 6.4 km/h 88 % 0 mm
08:41 16.6 °C 14.4 °C 1015.8 hPa NE 1.6 km/h 4.8 km/h 87 % 0 mm
08:46 16.7 °C 14.5 °C 1015.8 hPa NE 3.2 km/h 11.3 km/h 87 % 0 mm
08:51 16.7 °C 14.6 °C 1015.8 hPa NE 1.6 km/h 8 km/h 87 % 0 mm
08:56 16.7 °C 14.6 °C 1015.8 hPa NE 1.8 km/h 5.6 km/h 87 % 0 mm
09:01 16.7 °C 14.4 °C 1015.8 hPa NE 1.6 km/h 9.3 km/h 86 % 0 mm
09:06 16.8 °C 14.7 °C 1015.8 hPa NE 4.8 km/h 9.7 km/h 87 % 0 mm
09:11 16.9 °C 14.7 °C 1015.5 hPa NE 3.2 km/h 8 km/h 87 % 0 mm
09:16 16.8 °C 14.3 °C 1015.5 hPa ENE 4.8 km/h 11.3 km/h 85 % 0 mm
09:21 16.8 °C 14.5 °C 1015.5 hPa ENE 3.2 km/h 11.3 km/h 86 % 0 mm
09:26 16.9 °C 14.3 °C 1015.5 hPa NE 1.6 km/h 4.8 km/h 85 % 0 mm
09:31 16.9 °C 14.6 °C 1015.5 hPa ENE 1.6 km/h 6.4 km/h 86 % 0 mm
09:36 17.1 °C 14.7 °C 1015.5 hPa ENE 1.6 km/h 6.4 km/h 86 % 0 mm
09:41 17.2 °C 14.7 °C 1015.8 hPa ENE 4.8 km/h 9.7 km/h 85 % 0 mm
09:46 17.3 °C 14.6 °C 1015.8 hPa ENE 4.8 km/h 9.7 km/h 84 % 0 mm
09:51 17.4 °C 14.6 °C 1015.8 hPa ENE 1.6 km/h 6.4 km/h 83 % 0 mm
09:56 17.8 °C 15 °C 1015.5 hPa ENE 3.2 km/h 12.9 km/h 84 % 0 mm
10:01 18.3 °C 15 °C 1015.5 hPa ENE 6.3 km/h 11.1 km/h 81 % 0 mm
10:06 18.7 °C 15.3 °C 1015.5 hPa NNE 3.9 km/h 5.6 km/h 81 % 0 mm
10:11 19.1 °C 15.1 °C 1015.1 hPa ENE 4.7 km/h 13 km/h 78 % 0 mm
10:16 19.3 °C 15.3 °C 1015.5 hPa ENE 4.3 km/h 11.1 km/h 78 % 0 mm
10:21 19.6 °C 15.2 °C 1015.5 hPa NE 3.7 km/h 9.7 km/h 76 % 0 mm
10:26 19.8 °C 15.7 °C 1015.5 hPa NE 2.6 km/h 5.6 km/h 77 % 0 mm
10:31 20.2 °C 15.6 °C 1015.5 hPa ENE 6.8 km/h 11.1 km/h 75 % 0 mm
10:36 20.5 °C 15.9 °C 1015.5 hPa ENE 6 km/h 11.1 km/h 75 % 0 mm
10:41 20.5 °C 15.7 °C 1015.5 hPa ENE 7.4 km/h 11.3 km/h 74 % 0 mm
10:46 20.4 °C 15.4 °C 1015.5 hPa ENE 6.9 km/h 11.3 km/h 73 % 0 mm
10:51 20.3 °C 15.9 °C 1015.5 hPa NE 1.6 km/h 4.8 km/h 76 % 0 mm
10:56 20.6 °C 15.6 °C 1015.5 hPa ENE 8.4 km/h 11.1 km/h 73 % 0 mm
11:01 20.5 °C 15.9 °C 1015.1 hPa ENE 4 km/h 6.4 km/h 75 % 0 mm
11:06 20.9 °C 16.1 °C 1015.5 hPa ENE 4.2 km/h 8 km/h 74 % 0 mm
11:11 20.8 °C 15.6 °C 1015.5 hPa ENE 7.4 km/h 11.1 km/h 72 % 0 mm
11:16 20.6 °C 15.4 °C 1015.5 hPa ENE 6.1 km/h 13 km/h 72 % 0 mm
11:21 20.8 °C 16.2 °C 1015.5 hPa NE 6.1 km/h 13 km/h 75 % 0 mm
11:26 20.8 °C 15.8 °C 1015.5 hPa NE 5.3 km/h 7.4 km/h 73 % 0 mm
11:31 20.7 °C 15.9 °C 1015.5 hPa ENE 4.2 km/h 6.4 km/h 74 % 0 mm
11:36 20.7 °C 15.5 °C 1015.5 hPa ENE 4.7 km/h 11.3 km/h 72 % 0 mm
11:41 20.7 °C 15.7 °C 1015.5 hPa ENE 3.4 km/h 7.4 km/h 73 % 0 mm
11:46 20.9 °C 16.1 °C 1015.5 hPa NE 5.6 km/h 8 km/h 74 % 0 mm
11:56 20.7 °C 15.3 °C 1015.5 hPa ENE 7.2 km/h 7.4 km/h 71 % 0 mm
12:01 20.2 °C 14.5 °C 1015.1 hPa ENE 4.8 km/h 11.1 km/h 70 % 0 mm
12:05 19.9 °C 15.2 °C 1015.1 hPa NE 1.6 km/h 3.7 km/h 74 % 0 mm
12:10 19.7 °C 15.2 °C 1015.1 hPa ENE 2.4 km/h 4.8 km/h 75 % 0 mm
12:15 19.5 °C 14.9 °C 1015.5 hPa ENE 2.6 km/h 8 km/h 75 % 0 mm
12:20 19.4 °C 15.5 °C 1015.5 hPa ENE 5.8 km/h 11.1 km/h 78 % 0 mm
12:25 19.5 °C 15.2 °C 1015.1 hPa ENE 1.4 km/h 3.7 km/h 76 % 0 mm
12:30 19.4 °C 15.1 °C 1014.8 hPa ENE 2.4 km/h 3.7 km/h 76 % 0 mm
12:35 19.2 °C 14.9 °C 1015.1 hPa NE 1.1 km/h 6.4 km/h 76 % 0 mm
12:40 19.2 °C 15.1 °C 1015.1 hPa ENE 1 km/h 5.6 km/h 77 % 0 mm
12:45 19.3 °C 14.9 °C 1015.1 hPa ENE 2.7 km/h 5.6 km/h 76 % 0 mm
12:50 19.2 °C 14.8 °C 1015.1 hPa ENE 0.8 km/h 3.7 km/h 76 % 0 mm
12:55 19.3 °C 15.2 °C 1014.8 hPa NE 1 km/h 3.7 km/h 77 % 0 mm
13:00 19.5 °C 14.9 °C 1015.1 hPa ENE 0.6 km/h 3.7 km/h 75 % 0 mm
13:05 19.8 °C 15.6 °C 1015.1 hPa NE 3.5 km/h 7.4 km/h 77 % 0 mm
13:11 19.9 °C 15.4 °C 1014.8 hPa ENE 4.8 km/h 11.3 km/h 75 % 0 mm
13:15 20.1 °C 15.7 °C 1014.8 hPa ENE 1.6 km/h 8 km/h 76 % 0 mm
13:20 20.2 °C 15.8 °C 1014.8 hPa ENE 3.2 km/h 8 km/h 76 % 0 mm
13:25 20.2 °C 15.2 °C 1014.8 hPa ENE 4.8 km/h 8 km/h 73 % 0 mm
13:31 19.9 °C 14.8 °C 1014.8 hPa ENE 4.8 km/h 11.3 km/h 72 % 0 mm
13:35 19.7 °C 15.1 °C 1014.4 hPa ENE 3.2 km/h 11.3 km/h 75 % 0 mm
13:40 19.6 °C 15.2 °C 1014.4 hPa ENE 3.2 km/h 4.8 km/h 76 % 0 mm
13:46 19.3 °C 15 °C 1014.4 hPa NE 3.2 km/h 12.9 km/h 76 % 0 mm
13:50 19.1 °C 14.9 °C 1014.4 hPa NE 3.2 km/h 8 km/h 77 % 0 mm
13:55 18.8 °C 14.9 °C 1014.1 hPa ENE 4.8 km/h 11.3 km/h 78 % 0 mm
14:00 18.7 °C 15.2 °C 1014.1 hPa NE 4.2 km/h 5.6 km/h 80 % 0 mm
14:05 18.6 °C 15.3 °C 1014.1 hPa ENE 1.9 km/h 3.7 km/h 81 % 0 mm
14:10 18.7 °C 15.3 °C 1014.1 hPa NE 2.1 km/h 7.4 km/h 81 % 0 mm
14:15 18.7 °C 15 °C 1014.1 hPa NE 2.9 km/h 5.6 km/h 79 % 0 mm
14:20 18.7 °C 15.2 °C 1014.1 hPa NE 1.6 km/h 4.8 km/h 80 % 0 mm
14:25 18.7 °C 15.2 °C 1014.1 hPa NE 4.8 km/h 11.3 km/h 80 % 0 mm
14:30 18.6 °C 15.1 °C 1013.8 hPa ENE 1.6 km/h 3.2 km/h 80 % 0 mm
14:35 18.6 °C 15.1 °C 1013.8 hPa ENE 1.6 km/h 6.4 km/h 80 % 0 mm
14:40 18.6 °C 15.2 °C 1013.8 hPa ENE 1.6 km/h 4.8 km/h 81 % 0 mm
14:46 18.4 °C 15.2 °C 1013.8 hPa ENE 1.6 km/h 8 km/h 81 % 0 mm
14:51 18.4 °C 15.1 °C 1013.8 hPa Calm   3.2 km/h 81 % 0 mm
14:56 18.4 °C 15.3 °C 1013.8 hPa Calm   1.6 km/h 82 % 0 mm
15:01 18.4 °C 14.9 °C 1013.8 hPa Calm   1.9 km/h 80 % 0 mm
15:06 18.4 °C 14.9 °C 1013.4 hPa ENE 1.1 km/h 5.6 km/h 80 % 0 mm
15:11 18.3 °C 14.6 °C 1013.4 hPa NE 0.8 km/h 3.7 km/h 79 % 0 mm
15:16 18.3 °C 14.6 °C 1013.4 hPa NE 0.3 km/h 5.6 km/h 79 % 0 mm
15:21 18.3 °C 14.8 °C 1013.4 hPa NE 0.2 km/h 1.9 km/h 80 % 0 mm
15:26 18.3 °C 14.6 °C 1013.4 hPa NE 1.1 km/h 1.9 km/h 79 % 0 mm
15:31 18.3 °C 14.6 °C 1013.4 hPa NE 0.8 km/h 1.9 km/h 79 % 0 mm
15:36 18.3 °C 14.6 °C 1013.4 hPa Calm     79 % 0 mm
15:41 18.3 °C 14.2 °C 1013.1 hPa Calm     77 % 0 mm
15:46 18.4 °C 14.3 °C 1013.1 hPa Calm     77 % 0 mm
15:51 18.4 °C 13.2 °C 1013.1 hPa SSE 1.8 km/h 6.4 km/h 72 % 0 mm
15:56 18.4 °C 11.4 °C 1013.1 hPa SSE 2.9 km/h 6.4 km/h 64 % 0 mm
16:01 18.4 °C 11.7 °C 1013.1 hPa SSE 3.4 km/h 7.4 km/h 65 % 0 mm
16:06 18.5 °C 10.8 °C 1013.1 hPa SSE 1.6 km/h 5.6 km/h 61 % 0 mm
16:11 18.5 °C 11.1 °C 1013.1 hPa Calm   5.6 km/h 62 % 0 mm
16:16 18.5 °C 10.6 °C 1013.1 hPa SE 8.7 km/h 13 km/h 60 % 0 mm
16:20 18.4 °C 10.6 °C 1013.1 hPa SE 1.9 km/h 5.6 km/h 60 % 0 mm
16:25 18.4 °C 10.5 °C 1013.1 hPa SSE 3.2 km/h 5.6 km/h 60 % 0 mm
16:30 18.3 °C 10.7 °C 1013.1 hPa SSE 5.8 km/h 11.1 km/h 61 % 0 mm
16:35 18.2 °C 10.8 °C 1013.1 hPa SE 2.3 km/h 7.4 km/h 62 % 0 mm
16:40 18.2 °C 10.8 °C 1013.1 hPa SE 1.4 km/h 5.6 km/h 62 % 0 mm
16:45 18.2 °C 11.2 °C 1012.8 hPa SE 0.2 km/h 1.9 km/h 64 % 0 mm
16:50 18.2 °C 11.5 °C 1012.8 hPa SE 0.2 km/h 1.9 km/h 65 % 0 mm
16:53 18.1 °C 10.9 °C 1012.8 hPa SE 1.6 km/h 3.7 km/h 63 % 0 mm
16:58 18.1 °C 10.9 °C 1012.4 hPa Calm   1.9 km/h 63 % 0 mm
17:03 17.9 °C 10.8 °C 1012.4 hPa Calm   3.7 km/h 63 % 0 mm
17:08 17.9 °C 11.3 °C 1012.4 hPa Calm   1.9 km/h 65 % 0 mm
17:13 17.8 °C 10.4 °C 1012.4 hPa SE 0.3 km/h 1.9 km/h 62 % 0 mm
17:18 17.8 °C 10.4 °C 1012.8 hPa SE 0.2 km/h 1.9 km/h 62 % 0 mm
17:21 17.8 °C 10.9 °C 1012.8 hPa Calm   1.9 km/h 64 % 0 mm
17:26 17.7 °C 10.1 °C 1012.4 hPa ESE 3.1 km/h 7.4 km/h 61 % 0 mm
17:31 17.6 °C 10 °C 1012.4 hPa SSW 0.3 km/h 1.9 km/h 61 % 0 mm
17:36 17.6 °C 10.2 °C 1012.1 hPa Calm     62 % 0 mm
17:41 17.6 °C 10.2 °C 1012.1 hPa Calm   3.7 km/h 62 % 0 mm
17:46 17.5 °C 10.4 °C 1011.7 hPa Calm   3.7 km/h 63 % 0 mm
17:51 17.4 °C 10.7 °C 1011.7 hPa Calm     65 % 0 mm
17:56 17.3 °C 10.4 °C 1011.7 hPa Calm     64 % 0 mm
18:01 17.2 °C 10.1 °C 1011.4 hPa SSW 0.2 km/h 1.9 km/h 63 % 0 mm
18:06 17.2 °C 10.3 °C 1011.4 hPa Calm     64 % 0 mm
18:11 17.1 °C 10.7 °C 1011.4 hPa Calm     66 % 0 mm
18:16 16.9 °C 10.6 °C 1011.4 hPa Calm     66 % 0 mm
18:21 16.8 °C 10.2 °C 1011.4 hPa Calm   1.9 km/h 65 % 0 mm
18:26 16.8 °C 10.6 °C 1011.4 hPa Calm   1.9 km/h 67 % 0 mm
18:36 16.6 °C 10.2 °C 1011.4 hPa Calm   1.6 km/h 66 % 0 mm
18:41 16.5 °C 9.7 °C 1011.1 hPa Calm   1.9 km/h 64 % 0 mm
18:46 16.4 °C 9.4 °C 1011.1 hPa SSW 0.3 km/h 1.9 km/h 63 % 0 mm
18:51 16.3 °C 9.7 °C 1011.1 hPa SSW 0.3 km/h 1.9 km/h 65 % 0 mm
18:56 16.3 °C 9.2 °C 1011.1 hPa Calm     63 % 0 mm
19:01 16.3 °C 9 °C 1010.7 hPa Calm     62 % 0 mm
19:06 16.2 °C 9.4 °C 1010.7 hPa Calm     64 % 0 mm
19:11 16.1 °C 8.8 °C 1010.7 hPa SSW 0.2 km/h 1.9 km/h 62 % 0 mm
19:16 16.1 °C 9.2 °C 1010.7 hPa SSW 0.2 km/h 1.6 km/h 64 % 0 mm
19:21 15.9 °C 9.4 °C 1010.7 hPa SSW 0.6 km/h 1.9 km/h 65 % 0 mm
19:27 15.8 °C 9.3 °C 1010.7 hPa SSW 0.3 km/h 1.9 km/h 65 % 0 mm
19:32 15.7 °C 9.4 °C 1010.4 hPa SSW 0.5 km/h 1.9 km/h 66 % 0 mm
19:37 15.7 °C 9.6 °C 1010.4 hPa SSW 1 km/h 3.7 km/h 67 % 0 mm
19:42 15.6 °C 9.4 °C 1010 hPa SSW 0.2 km/h 1.9 km/h 67 % 0 mm
19:52 15.5 °C 9.6 °C 1010 hPa SSW 0.2 km/h 1.9 km/h 68 % 0 mm
19:57 15.4 °C 9.6 °C 1009.7 hPa SSW 0.6 km/h 1.9 km/h 68 % 0 mm
20:02 15.4 °C 9.5 °C 1009.7 hPa SSW 1.3 km/h 3.7 km/h 68 % 0 mm
20:07 15.3 °C 9.2 °C 1009.7 hPa SSW 1.1 km/h 3.7 km/h 67 % 0 mm
20:12 15.3 °C 8.7 °C 1009.7 hPa SSW 0.3 km/h   65 % 0 mm
20:17 15.3 °C 8.9 °C 1009.7 hPa Calm     66 % 0 mm
20:22 15.2 °C 8.9 °C 1009.7 hPa Calm     66 % 0 mm
20:27 15.2 °C 8.4 °C 1009.7 hPa Calm     64 % 0 mm
20:32 15.2 °C 8.6 °C 1009.4 hPa Calm     65 % 0 mm
20:37 15.1 °C 8.6 °C 1009.4 hPa Calm     65 % 0 mm
20:42 15 °C 8.7 °C 1009.4 hPa Calm   1.9 km/h 66 % 0 mm
20:47 14.9 °C 8.6 °C 1009.4 hPa Calm     66 % 0 mm
20:52 14.8 °C 8.6 °C 1009.4 hPa Calm     66 % 0 mm
20:57 14.8 °C 8.5 °C 1009.4 hPa NE 0.2 km/h 1.9 km/h 66 % 0 mm
21:02 14.7 °C 8.4 °C 1009.4 hPa Calm     66 % 0 mm
21:07 14.6 °C 8.3 °C 1009.4 hPa Calm     66 % 0 mm
21:12 14.5 °C 8 °C 1009.4 hPa Calm     65 % 0 mm
21:17 14.3 °C 7.8 °C 1009 hPa Calm     65 % 0 mm
21:22 14.2 °C 7.9 °C 1009 hPa Calm     66 % 0 mm
21:27 14.1 °C 7.8 °C 1009 hPa Calm     66 % 0 mm
21:32 14 °C 7.9 °C 1009 hPa Calm     67 % 0 mm
21:37 13.9 °C 7.8 °C 1009 hPa Calm     67 % 0 mm
21:42 13.7 °C 7.9 °C 1009 hPa Calm     68 % 0 mm
21:47 13.6 °C 8.4 °C 1009 hPa Calm     71 % 0 mm
21:52 13.5 °C 8.6 °C 1009 hPa Calm     72 % 0 mm
21:57 13.4 °C 8.7 °C 1009 hPa Calm     73 % 0 mm
22:02 13.4 °C 8.8 °C 1009 hPa Calm     74 % 0 mm
22:07 13.3 °C 8.8 °C 1009 hPa Calm     74 % 0 mm
22:12 13.3 °C 9 °C 1009 hPa Calm     75 % 0 mm
22:17 13.3 °C 9.1 °C 1009 hPa Calm     76 % 0 mm
22:22 13.3 °C 9.3 °C 1009 hPa NE 0.2 km/h 1.9 km/h 77 % 0 mm
22:27 13.3 °C 10.1 °C 1008.7 hPa Calm   3.7 km/h 81 % 0 mm
22:33 13.3 °C 10.3 °C 1008.7 hPa Calm     82 % 0 mm
22:38 13.3 °C 10.5 °C 1008.7 hPa ENE 0.6 km/h 3.7 km/h 83 % 0 mm
22:43 13.4 °C 10.9 °C 1008.7 hPa ENE 0.5 km/h 1.9 km/h 85 % 0 mm
22:48 13.6 °C 11.3 °C 1008.7 hPa Calm     86 % 0 mm
22:53 13.6 °C 11.3 °C 1008.7 hPa ENE 1.6 km/h 3.7 km/h 86 % 0 mm
22:58 13.7 °C 11.4 °C 1008.7 hPa ENE 1.1 km/h 5.6 km/h 86 % 0 mm
23:03 13.7 °C 11.4 °C 1008.7 hPa ENE 0.8 km/h 3.7 km/h 86 % 0 mm
23:08 13.7 °C 11.4 °C 1008.7 hPa ENE 0.2 km/h 1.9 km/h 86 % 0 mm
23:13 13.7 °C 11.4 °C 1008.7 hPa NNE 1.4 km/h 4.8 km/h 86 % 0 mm
23:18 13.8 °C 11.5 °C 1008.7 hPa NNE 0.5 km/h 1.9 km/h 86 % 0 mm
23:23 13.8 °C 11.5 °C 1008.7 hPa Calm   3.7 km/h 86 % 0 mm
23:28 13.8 °C 11.6 °C 1008.4 hPa North 1.6 km/h 5.6 km/h 86 % 0 mm
23:33 13.8 °C 11.6 °C 1008.7 hPa North 1.8 km/h 5.6 km/h 86 % 0 mm
23:43 13.8 °C 11.7 °C 1008.4 hPa North 1 km/h 3.2 km/h 87 % 0 mm
23:48 13.9 °C 11.8 °C 1008.4 hPa Calm   1.9 km/h 87 % 0 mm
23:53 13.9 °C 11.8 °C 1008.4 hPa North 0.6 km/h 1.9 km/h 87 % 0 mm
23:58 13.9 °C 11.9 °C 1008 hPa NE 5.6 km/h 7.4 km/h 88 % 0 mm
Crab Meadow Weather
Compliments of Weather Underground - 3 mb

Script developed by  Jim McMurry - jmcmurry@mwt.net Adapted for the template by  Wim van der Kuil - Leuven-Template.eu

Recycling: Americans use 2,500,000 plastic bottles every hour! Most of them are thrown away!